Location: Haliburton Scout Reserve
(45.0900°N, 78.3200°W)
Time: 12:32:51
(UTC-05:00)

N. Korean satellite - Pass Details

Date: 02 December 2021
Orbit: 447 x 491 km, 97.3° (Epoch: 23 January)

Event Time Altitude Azimuth Distance (km) Brightness Sun altitude
Rises 17:39:46 0° 208° (SSW) 2,536 11.0 -11.6°
Reaches altitude 10° 17:42:36 10° 234° (SW) 1,653 10.6 -12.0°
Maximum altitude 17:44:36 14° 268° (W) 1,401 10.1 -12.4°
Drops below altitude 10° 17:46:36 10° 303° (WNW) 1,646 9.8 -12.7°
Sets 17:49:26 0° 329° (NNW) 2,518 10.4 -13.2°
